Location: Grandview
(34.8900°N, 117.1058°W)
Time: 20:18:28
(UTC-08:00)

STRAND 1 - Visible Passes

Search period start: 23 February 2018 00:00
Search period end: 05 March 2018 00:00
Orbit: 769 x 781 km, 98.5° (Epoch: 23 February)

Date Brightness Start Highest point End Pass type
(mag) Time Alt. Az. Time Alt. Az. Time Alt. Az.
23 Feb ? 18:38:30 10° NE 18:43:04 31° E 18:47:35 10° SSE visible
23 Feb ? 20:17:50 10° NNW 20:22:04 26° WNW 20:26:16 10° WSW visible
24 Feb ? 05:51:06 10° SE 05:55:37 32° ENE 06:00:09 10° N visible
24 Feb ? 18:06:16 10° ENE 18:08:54 14° E 18:11:31 10° ESE visible
24 Feb ? 19:43:20 10° N 19:48:22 56° WNW 19:53:23 10° SSW visible
25 Feb ? 05:19:08 10° E 05:22:03 15° ENE 05:24:59 10° NNE visible
25 Feb ? 19:09:23 10° NNE 19:14:31 66° ESE 19:19:36 10° S visible
25 Feb ? 20:50:44 10° NW 20:53:04 13° WNW 20:55:25 10° W visible
26 Feb ? 18:36:02 10° NE 18:40:31 29° E 18:44:56 10° SSE visible
26 Feb ? 20:15:14 10° NNW 20:19:33 28° WNW 20:23:51 10° SW visible
27 Feb ? 05:48:39 10° SE 05:53:06 30° ENE 05:57:33 10° N visible
27 Feb ? 18:03:59 10° ENE 18:06:20 13° E 18:08:40 10° ESE visible
27 Feb ? 19:40:47 10° N 19:45:51 60° WNW 19:50:53 10° SSW visible
28 Feb ? 05:16:49 10° E 05:19:32 15° ENE 05:22:16 10° NNE visible
28 Feb ? 19:06:52 10° NNE 19:11:59 62° E 19:17:02 10° S visible
28 Feb ? 20:48:00 10° NNW 20:50:34 14° WNW 20:53:09 10° W visible
01 Mar ? 18:33:35 10° NE 18:37:57 28° E 18:42:17 10° SSE visible
01 Mar ? 20:12:37 10° N 20:17:02 29° WNW 20:21:24 10° SW visible
02 Mar ? 05:46:13 10° SE 05:50:34 29° ENE 05:54:57 10° N visible
02 Mar ? 19:38:13 10° N 19:43:19 64° WNW 19:48:22 10° SSW visible
03 Mar ? 05:14:32 10° E 05:17:02 14° ENE 05:19:32 10° NE visible
03 Mar ? 19:04:22 10° NNE 19:09:26 58° E 19:14:28 10° S visible
03 Mar ? 20:45:16 10° NNW 20:48:04 15° WNW 20:50:50 10° W visible
04 Mar ? 18:31:07 10° NE 18:35:24 26° E 18:39:38 10° SSE visible
04 Mar ? 20:10:01 10° N 20:14:30 31° WNW 20:18:58 10° SW visible
